Regional Weather Roundup
Issued by NWS Burlington, VT

Home | Current Version | Previous Version | Text Only | Print | Product List | Glossary On
Versions: 1 2 3 4 5 6 7 8 9 10 11 12 13 14 15 16 17 18 19 20 21 22 23 24 25 26 27 28 29 30 31 32 33 34 35 36 37 38 39 40 41 42 43 44 45 46 47 48 49 50
000
ASUS41 KBTV 221210
RWRBTV
VERMONT REGIONAL WEATHER ROUNDUP
NATIONAL WEATHER SERVICE BURLINGTON VT
800 AM EDT FRI MAY 22 2015

NOTE: "FAIR" INDICATES FEW OR NO CLOUDS BELOW 12,000 FEET WITH NO
SIGNIFICANT WEATHER AND/OR OBSTRUCTIONS TO VISIBILITY.

* THESE REPORTS ARE NOT UNDER NWS QUALITY CONTROL AND/OR DO NOT
  REPORT WEATHER SUCH AS PRECIPITATION AND FOG.

VTZ001>019-221300-
_____VERMONT_____


CITY           SKY/WX    TMP DP  RH WIND       PRES   REMARKS
BURLINGTON     CLOUDY    55  36  48 NW9       29.83R
6HR MIN TEMP:  49; 6HR MAX TEMP:  56;

MONTPELIER     CLOUDY    50  39  66 CALM      29.84R
6HR MIN TEMP:  42; 6HR MAX TEMP:  54;

MORRISVILLE    CLOUDY    55  41  59 CALM      29.83R
6HR MIN TEMP:  44; 6HR MAX TEMP:  55;

ST. JOHNSBURY*   N/A     51  44  77 MISG      29.79R
6HR MIN TEMP:  46; 6HR MAX TEMP:  51;

LYNDONVILLE*     N/A     49  40  70 SW5       29.81R
6HR MIN TEMP:  45; 6HR MAX TEMP:  53;

MIDDLEBURY*    CLOUDY    57  38  48 S8        29.82S
6HR MIN TEMP:  49; 6HR MAX TEMP:  57;

RUTLAND*       PTSUNNY   52  36  54 S3        29.84R
6HR MIN TEMP:  43; 6HR MAX TEMP:  52;

SPRINGFIELD    CLOUDY    55  39  54 SE3       29.82F
6HR MIN TEMP:  45; 6HR MAX TEMP:  55;

HIGHGATE*      CLOUDY    52  42  69 W5        29.82R
6HR MIN TEMP:  49; 6HR MAX TEMP:  54;

NEWPORT*         N/A     51  38  60 W12G17    29.80R
6HR MIN TEMP:  44; 6HR MAX TEMP:  51;

BENNINGTON     PTSUNNY   54  40  59 VRB5      29.86R
6HR MIN TEMP:  42; 6HR MAX TEMP:  55;

SUTTON*          N/A     50 N/A N/A MISG        N/A

_____LAKE CHAMPLAIN_____


CITY           SKY/WX    TMP DP  RH WIND       PRES   REMARKS

$$

NYZ007-026>031-035-052-083-221300-
_____NORTHERN NEW YORK_____


CITY           SKY/WX    TMP DP  RH WIND       PRES   REMARKS
PLATTSBURGH    PTSUNNY   53  38  56 W5        29.84R
6HR MIN TEMP:  53; 6HR MAX TEMP:  56;

SARANAC LAKE   CLOUDY    44  39  82 VRB5      29.84R
6HR MIN TEMP:  41; 6HR MAX TEMP:  48;

MASSENA        SUNNY     49  35  58 NW12G18   29.92R
6HR MIN TEMP:  47; 6HR MAX TEMP:  53; 6HR PCP: TRACE;

OGDENSBURG*    SUNNY     50  34  53 N9        29.93R
POTSDAM*       MOSUNNY   45  34  65 NW9       29.91R
WATERTOWN      CLOUDY    48  35  60 N13       29.94R
6HR MIN TEMP:  46; 6HR MAX TEMP:  52;

ALBANY         MOSUNNY   57  40  52 W8        29.87S
6HR MIN TEMP:  49; 6HR MAX TEMP:  57;

GLENS FALLS    MOSUNNY   55  43  63 S5        29.85R
6HR MIN TEMP:  44; 6HR MAX TEMP:  55;


$$
NHZ002-005-011-221300-
_____NEW HAMPSHIRE_____


CITY           SKY/WX    TMP DP  RH WIND       PRES   REMARKS
LEBANON        PTSUNNY   56  41  57 S5        29.80F
6HR MIN TEMP:  43; 6HR MAX TEMP:  56;

KEENE          SUNNY     52  45  76 CALM      29.84S
6HR MIN TEMP:  46; 6HR MAX TEMP:  52;

PLYMOUTH         N/A     55  44  67 CALM      29.80F
6HR MIN TEMP:  46; 6HR MAX TEMP:  55;

WHITEFIELD     MOSUNNY   57  39  51 VRB3      29.79F
6HR MIN TEMP:  43; 6HR MAX TEMP:  57;


$$

_____REGIONAL QUEBEC LOCATIONS_____


CITY           SKY/WX    TMP DP  RH WIND       PRES   REMARKS
MONTREAL       CLOUDY    46  39  76 N14       29.86R
QUEBEC CITY    LGT RAIN  41  37  87 NW12      29.79R
SHERBROOKE     PTSUNNY   52  37  58 SW7       29.78R

_____REGIONAL ONTARIO LOCATIONS_____


CITY           SKY/WX    TMP DP  RH WIND       PRES   REMARKS
OTTAWA         MOSUNNY   46  34  61 NW17      29.93R

______KEY______
VSB  - VISIBILITY IN MILES
WCI  - WIND CHILL INDEX
HX   - HEAT INDEX
$$
NNNN



USA.gov is the U.S. government's official web portal to all federal, state and local government web resources and services.